Oxford, NC

1:45 AM EST on December 15, 2017 (GMT -0500)
Henderson-Oxford

Weather History for KHNZ - April, 2014

Change the Weather History Date:

Wednesday, April 2, 2014

  Actual Average (KTDF) Record (KTDF)
Temperature  
Mean Temperature 67 °F -  
Max Temperature 86 °F 69 °F 87 °F (1967)
Min Temperature 48 °F 41 °F 28 °F (1968)
Cooling Degree Days 2    
Growing Degree Days 17 (Base 50)    
Moisture  
Dew Point 34 °F    
Average Humidity 33    
Maximum Humidity 64    
Minimum Humidity 12    
Precipitation  
Precipitation 0.00 in - - ()
Sea Level Pressure  
Sea Level Pressure 30.02 in    
Wind  
Wind Speed 6 mph (SW)    
Max Wind Speed 13 mph    
Max Gust Speed 18 mph    
Visibility 10 miles    
Events      
Averages and records for this station are not official NWS values.
T = Trace of Precipitation, MM = Missing Value Source: NWS Daily Summary

Daily Weather History Graph

Daily Weather History Graph

Search for Another Location

Airport or City:

Trip Planner

Search our weather history database for the weather conditions in past years. The results will help you decide how hot, cold, wet, or windy it might be!

Date:

Astronomy

Apr. 02, 2014 Rise Set
Actual Time 6:58 AM EDT 7:37 PM EDT
Civil Twilight 6:32 AM EDT 8:03 PM EDT
Nautical Twilight 6:02 AM EDT 8:33 PM EDT
Astronomical Twilight 5:30 AM EDT 9:05 PM EDT
Moon 8:46 AM EDT (4/2) 10:53 PM EDT (4/2)
Length of Visible Light 13h 30m
Length of Day
12h 38m
Waxing Crescent, 10% of the Moon is Illuminated
Apr 2
Waxing Crescent
Apr 7
First Quarter
Apr 15
Full
Apr 22
Last Quarter
Apr 29
New

Hourly Weather History & Observations

Time (EDT) Temp. Dew Point Humidity Pressure Visibility Wind Dir Wind Speed Gust Speed Precip Events Conditions
12:15 AM 56.1 °F 36.1 °F 47% 30.04 in 10.0 mi SSW 5.8 mph - N/A   Clear
12:35 AM 54.9 °F 36.3 °F 50% 30.04 in 10.0 mi SSW 5.8 mph - N/A   Clear
12:55 AM 55.4 °F 36.3 °F 49% 30.04 in 10.0 mi SSW 5.8 mph - N/A   Clear
1:15 AM 56.7 °F 34.5 °F 43% 30.04 in 10.0 mi SSW 5.8 mph - N/A   Clear
1:35 AM 57.0 °F 32.9 °F 40% 30.04 in 10.0 mi SSW 4.6 mph - N/A   Clear
2:15 AM 53.8 °F 35.1 °F 49% 30.04 in 10.0 mi SSW 4.6 mph - N/A   Clear
2:35 AM 53.6 °F 34.7 °F 49% 30.04 in 10.0 mi SSW 5.8 mph - N/A   Clear
2:55 AM 53.6 °F 35.2 °F 50% 30.04 in 10.0 mi SSW 5.8 mph - N/A   Clear
3:15 AM 54.0 °F 34.3 °F 47% 30.04 in 10.0 mi SSW 6.9 mph - N/A   Clear
3:35 AM 53.4 °F 35.6 °F 51% 30.03 in 10.0 mi SSW 8.1 mph - N/A   Clear
3:55 AM 52.7 °F 35.6 °F 52% 30.03 in 10.0 mi SSW 5.8 mph - N/A   Clear
4:15 AM 51.8 °F 35.4 °F 54% 30.03 in 10.0 mi SSW 6.9 mph - N/A   Clear
4:35 AM 52.2 °F 35.4 °F 53% 30.02 in 10.0 mi SSW 8.1 mph - N/A   Clear
4:55 AM 51.6 °F 36.0 °F 55% 30.02 in 10.0 mi SSW 8.1 mph - N/A   Clear
5:15 AM 51.8 °F 35.1 °F 53% 30.02 in 10.0 mi SW 6.9 mph - N/A   Clear
5:35 AM 51.3 °F 34.9 °F 54% 30.01 in 10.0 mi SW 6.9 mph - N/A   Clear
5:55 AM 48.6 °F 36.9 °F 64% 30.02 in 10.0 mi SSW 6.9 mph - N/A   Clear
6:15 AM 48.6 °F 36.7 °F 64% 30.02 in 10.0 mi SSW 6.9 mph - N/A   Clear
6:35 AM 48.4 °F 36.9 °F 64% 30.02 in 10.0 mi SSW 6.9 mph - N/A   Clear
6:55 AM 49.1 °F 36.5 °F 62% 30.03 in 10.0 mi SW 5.8 mph - N/A   Clear
7:15 AM 49.8 °F 35.2 °F 57% 30.04 in 10.0 mi SW 4.6 mph - N/A   Clear
8:35 AM 58.5 °F 36.3 °F 44% 30.06 in 10.0 mi SW 9.2 mph - N/A   Clear
8:55 AM 60.4 °F 37.0 °F 42% 30.07 in 10.0 mi SW 8.1 mph - N/A   Clear
9:15 AM 62.2 °F 36.7 °F 39% 30.07 in 10.0 mi SW 6.9 mph - N/A   Clear
9:35 AM 65.1 °F 37.2 °F 36% 30.07 in 10.0 mi SW 6.9 mph - N/A   Clear
9:55 AM 67.8 °F 36.7 °F 32% 30.08 in 10.0 mi WSW 4.6 mph - N/A   Clear
10:15 AM 69.8 °F 37.9 °F 31% 30.08 in 10.0 mi SW 5.8 mph - N/A   Clear
10:35 AM 71.2 °F 38.1 °F 30% 30.08 in 10.0 mi SW 3.5 mph - N/A   Clear
10:55 AM 73.8 °F 37.9 °F 27% 30.08 in 10.0 mi Calm Calm - N/A   Clear
11:15 AM 75.4 °F 38.8 °F 27% 30.08 in 10.0 mi West 4.6 mph - N/A   Clear
11:35 AM 78.3 °F 39.0 °F 24% 30.07 in 10.0 mi West 4.6 mph - N/A   Clear
11:55 AM 80.6 °F 33.6 °F 18% 30.07 in 10.0 mi WSW 8.1 mph - N/A   Clear
12:35 PM 82.8 °F 25.3 °F 12% 30.06 in 10.0 mi NW 3.5 mph - N/A   Clear
12:55 PM 83.5 °F 27.3 °F 13% 30.05 in 10.0 mi NW 6.9 mph - N/A   Clear
1:15 PM 83.8 °F 26.1 °F 12% 30.05 in 10.0 mi WSW 3.5 mph - N/A   Clear
1:55 PM 84.0 °F 26.1 °F 12% 30.03 in 10.0 mi West 5.8 mph - N/A   Clear
2:15 PM 85.3 °F 27.0 °F 12% 30.02 in 10.0 mi West 5.8 mph - N/A   Clear
2:35 PM 85.5 °F 28.6 °F 13% 30.02 in 10.0 mi South 10.4 mph - N/A   Clear
2:55 PM 85.8 °F 27.7 °F 12% 30.00 in 10.0 mi WNW 8.1 mph - N/A   Clear
3:15 PM 86.4 °F 29.8 °F 13% 30.00 in 10.0 mi Calm Calm - N/A   Clear
3:35 PM 86.5 °F 30.2 °F 13% 29.99 in 10.0 mi SW 12.7 mph 18.4 mph N/A   Clear
3:55 PM 86.2 °F 30.6 °F 14% 29.98 in 10.0 mi South 9.2 mph - N/A   Clear
4:15 PM 86.0 °F 29.8 °F 13% 29.98 in 10.0 mi SW 12.7 mph 16.1 mph N/A   Clear
4:35 PM 85.5 °F 29.5 °F 13% 29.98 in 10.0 mi SW 10.4 mph - N/A   Clear
4:55 PM 86.0 °F 29.3 °F 13% 29.98 in 10.0 mi WSW 6.9 mph - N/A   Clear
5:15 PM 85.5 °F 28.6 °F 13% 29.98 in 10.0 mi West 5.8 mph - N/A   Clear
5:35 PM 85.3 °F 30.2 °F 14% 29.99 in 10.0 mi West 6.9 mph - N/A   Clear
5:55 PM 84.6 °F 31.8 °F 15% 29.98 in 10.0 mi West 4.6 mph - N/A   Clear
6:15 PM 83.5 °F 34.3 °F 17% 29.98 in 10.0 mi SW 6.9 mph - N/A   Clear
6:35 PM 82.4 °F 29.8 °F 15% 29.98 in 10.0 mi SW 9.2 mph - N/A   Clear
6:55 PM 81.9 °F 28.8 °F 14% 29.98 in 10.0 mi WSW 4.6 mph - N/A   Clear
7:15 PM 80.6 °F 29.7 °F 16% 29.99 in 10.0 mi Calm Calm - N/A   Clear
7:35 PM 77.7 °F 33.1 °F 20% 29.98 in 10.0 mi Calm Calm - N/A   Clear
7:55 PM 73.8 °F 34.9 °F 24% 29.98 in 10.0 mi Calm Calm - N/A   Clear
8:15 PM 71.2 °F 37.0 °F 29% 29.98 in 10.0 mi South 3.5 mph - N/A   Clear
8:35 PM 70.9 °F 36.9 °F 29% 29.99 in 10.0 mi South 3.5 mph - N/A   Clear
8:55 PM 73.0 °F 33.6 °F 24% 30.00 in 10.0 mi Calm Calm - N/A   Clear
9:15 PM 69.1 °F 36.7 °F 30% 30.00 in 10.0 mi Calm Calm - N/A   Clear
9:35 PM 69.4 °F 36.1 °F 29% 30.00 in 10.0 mi Calm Calm - N/A   Clear
9:55 PM 67.5 °F 37.8 °F 34% 30.01 in 10.0 mi SSW 5.8 mph - N/A   Clear
10:15 PM 67.8 °F 37.6 °F 33% 30.01 in 10.0 mi SSW 6.9 mph - N/A   Clear
10:35 PM 66.9 °F 37.6 °F 34% 30.02 in 10.0 mi SSW 6.9 mph - N/A   Clear
10:55 PM 64.9 °F 39.6 °F 39% 30.02 in 10.0 mi South 5.8 mph - N/A   Clear
11:15 PM 66.6 °F 36.7 °F 33% 30.02 in 10.0 mi Calm Calm - N/A   Clear
11:35 PM 60.6 °F 41.0 °F 48% 30.02 in 10.0 mi Calm Calm - N/A   Clear
11:55 PM 59.2 °F 42.8 °F 55% 30.02 in 10.0 mi Calm Calm - N/A   Clear